,,PA_Meas_PMT16A,,PR_Meas_QMR101_102,,RH_Meas_QMH101,,SR_Meas_QMS101,,TA_Meas_QMH101,,GenWind,,GenWind,
time,status,PA,status,PR,status,RH,status,SR,status,TA,status,DirAvg,status,SpdAvg,
2017-02-23, 20:23:04,VALID,918.774,VALID,0,INVALID,133.989,VALID,120.334,VALID,20.9869,VALID,21,VALID,1.78125,
2017-02-23, 20:24:04,VALID,918.818,VALID,0,INVALID,133.921,VALID,113.243,VALID,20.9853,VALID,28,VALID,0.0195313,
2017-02-23, 20:30:04,VALID,918.8,VALID,0,INVALID,133.783,VALID,146.657,VALID,20.8309,VALID,218,VALID,0,
2017-02-23, 20:31:04,VALID,918.818,VALID,0,INVALID,133.593,VALID,239.486,VALID,20.8683,VALID,238,VALID,0,
2017-02-23, 20:32:04,VALID,918.787,VALID,0,INVALID,133.646,VALID,243.247,VALID,20.8309,VALID,237,VALID,0,
2017-02-23, 20:33:04,VALID,918.756,VALID,0,INVALID,133.692,VALID,219.073,VALID,20.8113,VALID,338,VALID,0,
2017-02-23, 20:34:04,VALID,918.763,VALID,0,INVALID,133.456,VALID,223.692,VALID,20.8699,VALID,359,VALID,0,
2017-02-23, 20:35:04,VALID,918.748,VALID,0,INVALID,133.303,VALID,223.585,VALID,20.9479,VALID,310,VALID,0,
2017-02-23, 20:36:04,VALID,918.719,VALID,0,INVALID,133.341,VALID,251.412,VALID,20.9869,VALID,354,VALID,0,
2017-02-23, 20:37:04,VALID,918.735,VALID,0,INVALID,133.585,VALID,255.388,VALID,20.9089,VALID,250,VALID,1.66016,
2017-02-23, 20:38:04,VALID,918.669,VALID,0,INVALID,133.875,VALID,278.058,VALID,20.7528,VALID,229,VALID,2.12617,
2017-02-23, 20:39:04,VALID,918.677,VALID,0,INVALID,133.646,VALID,383.35,VALID,20.8894,VALID,285,VALID,0.820313,
2017-02-23, 20:40:04,VALID,918.63,VALID,0,INVALID,133.707,VALID,399.359,VALID,20.891,VALID,322,VALID,0.896094,
2017-02-23, 20:41:04,VALID,918.583,VALID,0,INVALID,133.707,VALID,430.194,VALID,20.9089,VALID,16,VALID,1.06328,
2017-02-23, 20:42:04,VALID,918.585,VALID,0,INVALID,133.082,VALID,417.194,VALID,21.1624,VALID,22,VALID,0.654688,
2017-02-23, 20:43:04,VALID,918.57,VALID,0,INVALID,132.396,VALID,341.448,VALID,21.4746,VALID,353,VALID,0.755078,
2017-02-23, 20:44:04,VALID,918.6,VALID,0,INVALID,132.251,VALID,300.298,VALID,21.5916,VALID,246,VALID,1.04961,
2017-02-23, 20:45:04,VALID,918.587,VALID,0,INVALID,133.456,VALID,258.396,VALID,21.3185,VALID,268,VALID,1.04414,
2017-02-23, 20:46:04,VALID,918.574,VALID,0,INVALID,133.974,VALID,215.527,VALID,21.1819,VALID,228,VALID,0,
2017-02-23, 20:47:04,VALID,918.577,VALID,0,INVALID,134.004,VALID,236.478,VALID,21.2015,VALID,230,VALID,1.0875,
2017-02-23, 20:48:04,VALID,918.519,VALID,0,INVALID,133.936,VALID,287.835,VALID,21.2405,VALID,242,VALID,0,
2017-02-23, 20:49:04,VALID,918.527,VALID,0,INVALID,133.501,VALID,292.133,VALID,21.4746,VALID,336,VALID,0.0121094,
2017-02-23, 20:50:04,VALID,918.517,VALID,0,INVALID,133.684,VALID,277.843,VALID,21.4746,VALID,331,VALID,0,
2017-02-23, 20:51:04,VALID,918.531,VALID,0,INVALID,133.768,VALID,283.43,VALID,21.4941,VALID,308,VALID,0,
2017-02-23, 20:52:04,VALID,918.522,VALID,0,INVALID,134.248,VALID,267.743,VALID,21.26,VALID,273,VALID,2.00156,
2017-02-23, 20:53:04,VALID,918.487,VALID,0,INVALID,133.86,VALID,273.653,VALID,21.1624,VALID,243,VALID,0.0289063,
2017-02-23, 20:54:04,VALID,918.475,VALID,0,INVALID,133.699,VALID,339.299,VALID,21.2015,VALID,233,VALID,0.208984,
2017-02-23, 20:55:04,VALID,918.435,VALID,0,INVALID,133.738,VALID,343.597,VALID,21.2795,VALID,13,VALID,0.353906,
2017-02-23, 20:56:04,VALID,918.439,VALID,0,INVALID,133.913,VALID,355.2,VALID,21.3965,VALID,309,VALID,0,
2017-02-23, 20:57:04,VALID,918.396,VALID,0,INVALID,133.882,VALID,380.234,VALID,21.4144,VALID,327,VALID,0.00078125,
2017-02-23, 20:58:04,VALID,918.392,VALID,0,INVALID,133.905,VALID,368.308,VALID,21.5331,VALID,11,VALID,0,
2017-02-23, 20:59:04,VALID,918.369,VALID,0,INVALID,133.959,VALID,400.218,VALID,21.6306,VALID,251,VALID,0,
2017-02-23, 21:00:04,VALID,918.355,VALID,0,INVALID,133.997,VALID,510.238,VALID,21.7087,VALID,235,VALID,1.14961,
2017-02-23, 21:01:04,VALID,918.379,VALID,0,INVALID,133.852,VALID,496.915,VALID,21.6306,VALID,236,VALID,1.08828,
2017-02-23, 21:02:04,VALID,918.379,VALID,0,INVALID,133.821,VALID,500.139,VALID,21.707,VALID,50,VALID,0.711719,
2017-02-23, 21:03:04,VALID,918.329,VALID,0,INVALID,133.844,VALID,514.536,VALID,21.9801,VALID,323,VALID,0.460938,
2017-02-23, 21:04:04,VALID,918.331,VALID,0,INVALID,133.928,VALID,504.436,VALID,21.8631,VALID,235,VALID,1.00742,
2017-02-23, 21:05:04,VALID,918.337,VALID,0,INVALID,133.738,VALID,437.715,VALID,21.8241,VALID,296,VALID,1.11875,
2017-02-23, 21:06:04,VALID,918.338,VALID,0,INVALID,133.204,VALID,441.261,VALID,21.746,VALID,337,VALID,1.23555,
2017-02-23, 21:07:04,VALID,918.31,VALID,0,INVALID,133.242,VALID,406.557,VALID,21.7265,VALID,278,VALID,0.00195313,
2017-02-23, 21:08:04,VALID,918.316,VALID,0,INVALID,133.638,VALID,376.689,VALID,21.8241,VALID,315,VALID,0,
2017-02-23, 21:09:04,VALID,918.29,VALID,0,INVALID,133.669,VALID,338.117,VALID,21.8631,VALID,15,VALID,0,
2017-02-23, 21:10:04,VALID,918.275,VALID,0,INVALID,133.821,VALID,329.737,VALID,21.9411,VALID,350,VALID,0,
2017-02-23, 21:11:04,VALID,918.281,VALID,0,INVALID,133.783,VALID,317.059,VALID,21.9411,VALID,265,VALID,1.38125,
2017-02-23, 21:12:04,VALID,918.263,VALID,0,INVALID,133.509,VALID,303.521,VALID,21.8631,VALID,267,VALID,1.76797,
2017-02-23, 21:13:04,VALID,918.283,VALID,0,INVALID,131.42,VALID,306.1,VALID,21.59,VALID,268,VALID,0.705078,
2017-02-23, 21:14:04,VALID,918.254,VALID,0,INVALID,132.312,VALID,276.231,VALID,21.6095,VALID,302,VALID,0,
2017-02-23, 21:15:04,VALID,918.27,VALID,0,INVALID,132.93,VALID,246.148,VALID,21.6485,VALID,203,VALID,1.04961,
2017-02-23, 21:16:04,VALID,918.27,VALID,0,INVALID,132.632,VALID,214.56,VALID,21.5705,VALID,247,VALID,1.46914,
2017-02-23, 21:17:04,VALID,918.253,VALID,0,INVALID,132.586,VALID,182.865,VALID,21.5119,VALID,250,VALID,1.72344,
2017-02-23, 21:18:04,VALID,918.252,VALID,0,INVALID,132.35,VALID,161.377,VALID,21.3949,VALID,244,VALID,1.09648,
2017-02-23, 21:19:04,VALID,918.238,VALID,0,INVALID,132.8,VALID,157.401,VALID,21.3738,VALID,240,VALID,0,
2017-02-23, 21:20:04,VALID,918.214,VALID,0,INVALID,133.021,VALID,162.666,VALID,21.3364,VALID,256,VALID,2.0832,
2017-02-23, 21:21:04,VALID,918.213,VALID,0,INVALID,133.013,VALID,183.509,VALID,21.2584,VALID,275,VALID,0.476563,
2017-02-23, 21:22:04,VALID,918.207,VALID,0,INVALID,133.509,VALID,242.065,VALID,21.2974,VALID,251,VALID,0.0953125,
2017-02-23, 21:23:04,VALID,918.167,VALID,0,INVALID,133.547,VALID,288.265,VALID,21.2389,VALID,223,VALID,1.42695,
2017-02-23, 21:24:04,VALID,918.186,VALID,0,INVALID,133.555,VALID,353.267,VALID,21.2193,VALID,226,VALID,0.710938,
2017-02-23, 21:25:04,VALID,918.149,VALID,0,INVALID,133.715,VALID,350.795,VALID,21.2584,VALID,206,VALID,0,
2017-02-23, 21:26:04,VALID,918.106,VALID,0,INVALID,133.585,VALID,333.282,VALID,21.2193,VALID,259,VALID,2.01953,
2017-02-23, 21:27:04,VALID,918.154,VALID,0,INVALID,133.623,VALID,385.929,VALID,21.2193,VALID,255,VALID,1.37227,
2017-02-23, 21:28:04,VALID,918.165,VALID,0,INVALID,133.677,VALID,406.665,VALID,21.2584,VALID,250,VALID,0.144531,
2017-02-23, 21:29:04,VALID,918.156,VALID,0,INVALID,133.814,VALID,365.085,VALID,21.4924,VALID,250,VALID,0,
2017-02-23, 21:30:04,VALID,918.151,VALID,0,INVALID,133.966,VALID,314.158,VALID,21.5509,VALID,209,VALID,0.511328,
2017-02-23, 21:31:04,VALID,918.192,VALID,0,INVALID,134.02,VALID,348.969,VALID,21.6095,VALID,253,VALID,0.700781,
2017-02-23, 21:32:04,VALID,918.178,VALID,0,INVALID,133.738,VALID,353.804,VALID,21.6095,VALID,163,VALID,1.27617,
2017-02-23, 21:33:04,VALID,918.194,VALID,0.2,INVALID,131.649,VALID,335.539,VALID,21.4534,VALID,199,VALID,1.53203,
2017-02-23, 21:34:04,VALID,918.173,VALID,0,INVALID,129.964,VALID,297.827,VALID,21.4339,VALID,216,VALID,2.27031,
2017-02-23, 21:35:04,VALID,918.152,VALID,0,INVALID,128.881,VALID,276.983,VALID,21.3754,VALID,260,VALID,1.09531,
2017-02-23, 21:36:04,VALID,918.15,VALID,0.2,INVALID,131.367,VALID,280.099,VALID,21.3754,VALID,238,VALID,1.53906,
2017-02-23, 21:37:04,VALID,918.148,VALID,0,INVALID,128.744,VALID,274.19,VALID,21.2193,VALID,258,VALID,1.59102,
2017-02-23, 21:38:04,VALID,918.114,VALID,0.2,INVALID,131.832,VALID,250.66,VALID,21.2193,VALID,266,VALID,0.692578,
2017-02-23, 21:39:04,VALID,918.129,VALID,0,INVALID,128.317,VALID,222.296,VALID,21.0633,VALID,266,VALID,1.07461,
2017-02-23, 21:40:04,VALID,918.099,VALID,0,INVALID,130.81,VALID,204.031,VALID,21.0438,VALID,231,VALID,1.11641,
2017-02-23, 21:41:04,VALID,918.053,VALID,0,INVALID,131.618,VALID,197.907,VALID,21.0438,VALID,209,VALID,1.87578,
2017-02-23, 21:42:04,VALID,918.076,VALID,0,INVALID,131.214,VALID,199.196,VALID,20.9268,VALID,253,VALID,2.44844,
2017-02-23, 21:43:04,VALID,918.062,VALID,0,INVALID,131.161,VALID,205.535,VALID,20.8277,VALID,265,VALID,1.26602,
2017-02-23, 21:44:04,VALID,918.039,VALID,0,INVALID,131.58,VALID,212.733,VALID,20.8293,VALID,256,VALID,1.77109,
2017-02-23, 21:45:04,VALID,918.022,VALID,0,INVALID,131.695,VALID,222.94,VALID,20.7513,VALID,291,VALID,1.48711,
2017-02-23, 21:46:04,VALID,918.005,VALID,0,INVALID,132.266,VALID,233.577,VALID,20.7318,VALID,260,VALID,0.0105469,
2017-02-23, 21:47:04,VALID,917.981,VALID,0,INVALID,132.525,VALID,243.891,VALID,20.7513,VALID,300,VALID,0,
2017-02-23, 21:48:04,VALID,917.953,VALID,0,INVALID,132.64,VALID,253.776,VALID,20.7723,VALID,218,VALID,0.697266,
2017-02-23, 21:49:04,VALID,917.917,VALID,0,INVALID,132.96,VALID,263.338,VALID,20.8293,VALID,230,VALID,0.625391,
2017-02-23, 21:50:04,VALID,917.9,VALID,0,INVALID,132.342,VALID,273.867,VALID,20.8293,VALID,223,VALID,0,
2017-02-23, 21:51:04,VALID,917.918,VALID,0,INVALID,132.823,VALID,284.074,VALID,20.9073,VALID,255,VALID,0.000390625,
2017-02-23, 21:52:04,VALID,917.897,VALID,0,INVALID,132.754,VALID,295.463,VALID,20.8878,VALID,336,VALID,1.15117,
2017-02-23, 21:53:04,VALID,917.867,VALID,0,INVALID,133.082,VALID,306.852,VALID,20.9658,VALID,253,VALID,0.394531,
2017-02-23, 21:54:04,VALID,917.831,VALID,0,INVALID,133.273,VALID,319.852,VALID,21.0259,VALID,272,VALID,0.480859,
2017-02-23, 21:55:04,VALID,917.788,VALID,0,INVALID,133.173,VALID,337.473,VALID,21.0064,VALID,268,VALID,1.17188,
2017-02-23, 21:56:04,VALID,917.759,VALID,0,INVALID,133.105,VALID,353.267,VALID,21.0454,VALID,280,VALID,0.543359,
2017-02-23, 21:57:04,VALID,917.761,VALID,0,INVALID,133.029,VALID,365.192,VALID,21.0649,VALID,253,VALID,2.08555,
2017-02-23, 21:58:04,VALID,917.678,VALID,0,INVALID,131.634,VALID,372.713,VALID,20.9658,VALID,288,VALID,2.26172,
2017-02-23, 21:59:04,VALID,917.684,VALID,0,INVALID,131.725,VALID,376.796,VALID,20.9674,VALID,233,VALID,1.45469,
2017-02-23, 22:00:04,VALID,917.684,VALID,0,INVALID,132.716,VALID,380.557,VALID,21.0259,VALID,267,VALID,0.910156,
2017-02-23, 22:01:04,VALID,917.67,VALID,0,INVALID,132.48,VALID,379.16,VALID,20.9869,VALID,253,VALID,1.80703,
2017-02-23, 22:02:04,VALID,917.63,VALID,0,INVALID,132.03,VALID,376.259,VALID,21.0064,VALID,255,VALID,1.21836,
2017-02-23, 22:03:04,VALID,917.615,VALID,0,INVALID,132.289,VALID,367.556,VALID,21.0243,VALID,244,VALID,1.375,
2017-02-23, 22:04:04,VALID,917.616,VALID,0,INVALID,131.039,VALID,349.399,VALID,21.0454,VALID,232,VALID,1.17969,
2017-02-23, 22:05:04,VALID,917.602,VALID,0,INVALID,131.458,VALID,322.216,VALID,21.1234,VALID,229,VALID,0.668359,
2017-02-23, 22:06:04,VALID,917.562,VALID,0,INVALID,130.162,VALID,320.497,VALID,21.0633,VALID,275,VALID,0.852734,
2017-02-23, 22:07:04,VALID,917.556,VALID,0,INVALID,129.026,VALID,322.109,VALID,21.0649,VALID,260,VALID,1.37266,
2017-02-23, 22:08:04,VALID,917.559,VALID,0,INVALID,131.047,VALID,321.571,VALID,21.0633,VALID,251,VALID,0.722656,
2017-02-23, 22:09:04,VALID,917.509,VALID,0,INVALID,130.589,VALID,311.364,VALID,21.0438,VALID,257,VALID,2.78555,
2017-02-23, 22:10:04,VALID,917.495,VALID,0,INVALID,129.987,VALID,283.107,VALID,20.9869,VALID,241,VALID,1.04883,
2017-02-23, 22:11:04,VALID,917.493,VALID,0,INVALID,131.512,VALID,245.396,VALID,21.0048,VALID,317,VALID,1.22812,
2017-02-23, 22:12:04,VALID,917.469,VALID,0,INVALID,131.496,VALID,211.552,VALID,21.0633,VALID,247,VALID,0.251953,
2017-02-23, 22:13:04,VALID,917.441,VALID,0,INVALID,128.432,VALID,203.386,VALID,20.9869,VALID,241,VALID,1.77305,
2017-02-23, 22:14:04,VALID,917.42,VALID,0,INVALID,130.193,VALID,205.75,VALID,21.0048,VALID,248,VALID,1.88789,
2017-02-23, 22:15:04,VALID,917.479,VALID,0,INVALID,131.481,VALID,191.138,VALID,21.0243,VALID,290,VALID,0.260938,
2017-02-23, 22:16:04,VALID,917.456,VALID,0,INVALID,128.706,VALID,176.096,VALID,20.9284,VALID,272,VALID,1.71602,
2017-02-23, 22:17:04,VALID,917.445,VALID,0,INVALID,130.185,VALID,172.98,VALID,20.8293,VALID,309,VALID,2.03164,
2017-02-23, 22:18:04,VALID,917.478,VALID,0,INVALID,130.986,VALID,164.278,VALID,20.8293,VALID,193,VALID,0,
2017-02-23, 22:19:04,VALID,917.495,VALID,0,INVALID,131.542,VALID,156.972,VALID,20.8699,VALID,255,VALID,0,
2017-02-23, 22:20:04,VALID,917.477,VALID,0,INVALID,131.451,VALID,153.426,VALID,20.8683,VALID,243,VALID,0,
2017-02-23, 22:21:04,VALID,917.491,VALID,0,INVALID,131.039,VALID,152.352,VALID,20.8894,VALID,243,VALID,0,
2017-02-23, 22:22:04,VALID,917.439,VALID,0,INVALID,131.153,VALID,153.533,VALID,20.8894,VALID,257,VALID,0,
2017-02-23, 22:23:04,VALID,917.438,VALID,0,INVALID,130.879,VALID,156.542,VALID,20.7723,VALID,257,VALID,0.907422,
2017-02-23, 22:24:04,VALID,917.376,VALID,0,INVALID,128.493,VALID,161.162,VALID,20.7123,VALID,256,VALID,1.66328,
2017-02-23, 22:25:04,VALID,917.368,VALID,0,INVALID,122.836,VALID,167.286,VALID,20.7528,VALID,228,VALID,2.80938,
2017-02-23, 22:26:04,VALID,917.35,VALID,0,INVALID,126.076,VALID,173.195,VALID,20.7723,VALID,256,VALID,2.23711,
2017-02-23, 22:27:04,VALID,917.258,VALID,0,INVALID,122.455,VALID,177.923,VALID,20.7528,VALID,261,VALID,2.45703,
2017-02-23, 22:28:04,VALID,917.248,VALID,0,INVALID,125.489,VALID,180.823,VALID,20.7528,VALID,245,VALID,2.82461,
2017-02-23, 22:29:04,VALID,917.239,VALID,0,INVALID,109.213,VALID,183.295,VALID,20.6943,VALID,249,VALID,3.90898,
2017-02-23, 22:30:04,VALID,917.224,VALID,0,INVALID,123.103,VALID,175.451,VALID,20.7528,VALID,238,VALID,2.33672,
2017-02-23, 22:31:04,VALID,917.232,VALID,0,INVALID,125.451,VALID,155.682,VALID,20.7723,VALID,236,VALID,1.72695,
2017-02-23, 22:32:04,VALID,917.263,VALID,0,INVALID,128.119,VALID,136.558,VALID,20.7528,VALID,255,VALID,2.28164,
2017-02-23, 22:36:04,VALID,917.351,VALID,0,INVALID,128.866,VALID,121.946,VALID,20.7333,VALID,241,VALID,1.36953,
2017-02-23, 22:37:04,VALID,917.389,VALID,0,INVALID,130.254,VALID,129.037,VALID,20.7918,VALID,7,VALID,1.44023,
2017-02-23, 22:38:04,VALID,917.384,VALID,0,INVALID,128.881,VALID,131.401,VALID,20.7333,VALID,295,VALID,1.16797,
2017-02-23, 22:39:04,VALID,917.342,VALID,0,INVALID,129.994,VALID,137.632,VALID,20.7918,VALID,296,VALID,0.542969,
2017-02-23, 22:40:04,VALID,917.339,VALID,0,INVALID,130.399,VALID,147.087,VALID,20.8309,VALID,227,VALID,0.563672,
2017-02-23, 22:41:04,VALID,917.292,VALID,0,INVALID,129.331,VALID,159.55,VALID,20.8113,VALID,229,VALID,0,
2017-02-23, 22:42:04,VALID,917.27,VALID,0,INVALID,129.148,VALID,176.096,VALID,20.8309,VALID,266,VALID,0.737109,
2017-02-23, 22:43:04,VALID,917.235,VALID,0,INVALID,124.574,VALID,193.394,VALID,20.7918,VALID,254,VALID,3.13906,
2017-02-23, 22:44:04,VALID,917.251,VALID,0,INVALID,125.032,VALID,210.477,VALID,20.7918,VALID,249,VALID,0.605859,
2017-02-23, 22:45:04,VALID,917.256,VALID,0,INVALID,123.271,VALID,222.511,VALID,20.7918,VALID,254,VALID,0,
2017-02-23, 22:46:04,VALID,917.281,VALID,0,INVALID,125.024,VALID,222.618,VALID,20.7708,VALID,294,VALID,0,
2017-02-23, 22:47:04,VALID,917.318,VALID,0,INVALID,124.635,VALID,214.238,VALID,20.8504,VALID,245,VALID,0,
2017-02-23, 22:48:04,VALID,917.327,VALID,0,INVALID,128.462,VALID,203.171,VALID,20.9268,VALID,208,VALID,0,
2017-02-23, 22:49:04,VALID,917.318,VALID,0,INVALID,128.554,VALID,192.32,VALID,21.0064,VALID,204,VALID,0,
2017-02-23, 22:50:04,VALID,917.335,VALID,0,INVALID,126.785,VALID,183.509,VALID,21.0665,VALID,263,VALID,0,
2017-02-23, 22:51:04,VALID,917.33,VALID,0,INVALID,125.466,VALID,176.633,VALID,21.1234,VALID,239,VALID,0.00976563,
2017-02-23, 22:52:04,VALID,917.334,VALID,0,INVALID,111.104,VALID,172.98,VALID,21.1218,VALID,229,VALID,1.49141,
2017-02-23, 22:53:04,VALID,917.325,VALID,0,INVALID,122.973,VALID,172.873,VALID,21.1218,VALID,277,VALID,0,
2017-02-23, 22:54:04,VALID,917.291,VALID,0,INVALID,120.031,VALID,174.592,VALID,21.1218,VALID,283,VALID,0,
2017-02-23, 22:55:04,VALID,917.267,VALID,0,VALID,99.8972,VALID,177.493,VALID,21.0633,VALID,260,VALID,0,
2017-02-23, 22:56:04,VALID,917.27,VALID,0,VALID,101.064,VALID,178.997,VALID,21.0633,VALID,249,VALID,0,
2017-02-23, 22:57:04,VALID,917.277,VALID,0,VALID,104,VALID,178.997,VALID,21.0812,VALID,255,VALID,0,
2017-02-23, 22:58:04,VALID,917.249,VALID,0,VALID,94.2178,VALID,178.03,VALID,21.0438,VALID,254,VALID,0,
2017-02-23, 22:59:04,VALID,917.241,VALID,0,VALID,98.6241,VALID,177.6,VALID,21.0633,VALID,253,VALID,0,
2017-02-23, 23:00:04,VALID,917.243,VALID,0,INVALID,114.725,VALID,178.46,VALID,21.0828,VALID,237,VALID,0,
2017-02-23, 23:01:04,VALID,917.22,VALID,0,VALID,104,VALID,180.071,VALID,21.0828,VALID,235,VALID,0,
2017-02-23, 23:02:04,VALID,917.211,VALID,0,INVALID,110.273,VALID,182.22,VALID,21.0633,VALID,250,VALID,0,
2017-02-23, 23:03:04,VALID,917.2,VALID,0,VALID,101.567,VALID,185.766,VALID,21.0048,VALID,246,VALID,2.16797,
2017-02-23, 23:04:04,VALID,917.108,VALID,0,VALID,90.2308,VALID,190.815,VALID,20.9658,VALID,243,VALID,0.952344,
2017-02-23, 23:05:04,VALID,917.067,VALID,0,VALID,94.2864,VALID,198.551,VALID,21.0048,VALID,252,VALID,1.28906,
2017-02-23, 23:06:04,VALID,917.001,VALID,0,VALID,99.2721,VALID,208.006,VALID,21.0665,VALID,253,VALID,0,
2017-02-23, 23:07:04,VALID,916.976,VALID,0,VALID,100.583,VALID,217.031,VALID,21.0665,VALID,241,VALID,0.936328,
2017-02-23, 23:08:04,VALID,916.919,VALID,0,VALID,104,VALID,224.23,VALID,21.0649,VALID,245,VALID,1.37383,
2017-02-23, 23:09:04,VALID,916.922,VALID,0,INVALID,115.54,VALID,232.395,VALID,21.0844,VALID,245,VALID,0.672266,
2017-02-23, 23:10:04,VALID,916.873,VALID,0,VALID,98.586,VALID,237.445,VALID,21.0844,VALID,256,VALID,1.79414,
2017-02-23, 23:11:04,VALID,916.843,VALID,0,VALID,101.795,VALID,238.412,VALID,21.0828,VALID,250,VALID,2.57539,
2017-02-23, 23:12:04,VALID,916.826,VALID,0,VALID,104,VALID,235.189,VALID,21.1624,VALID,222,VALID,0.208984,
2017-02-23, 23:13:04,VALID,916.863,VALID,0,INVALID,117.126,VALID,230.998,VALID,21.2405,VALID,257,VALID,0.0195313,
2017-02-23, 23:14:04,VALID,916.846,VALID,0,VALID,104,VALID,226.916,VALID,21.2015,VALID,255,VALID,0.0632813,
2017-02-23, 23:15:04,VALID,916.861,VALID,0,INVALID,118.796,VALID,226.593,VALID,21.2405,VALID,259,VALID,0,
2017-02-23, 23:16:04,VALID,916.84,VALID,0,INVALID,112.133,VALID,225.197,VALID,21.26,VALID,274,VALID,1.11172,
2017-02-23, 23:17:04,VALID,916.805,VALID,0,INVALID,119.093,VALID,221.759,VALID,21.26,VALID,240,VALID,0,
2017-02-23, 23:18:04,VALID,916.827,VALID,0,INVALID,123.743,VALID,218.75,VALID,21.3185,VALID,262,VALID,0,
2017-02-23, 23:19:04,VALID,916.812,VALID,0,INVALID,122.485,VALID,216.816,VALID,21.3185,VALID,268,VALID,0,
2017-02-23, 23:20:04,VALID,916.809,VALID,0,INVALID,123.202,VALID,214.667,VALID,21.3575,VALID,287,VALID,0,
2017-02-23, 23:21:04,VALID,916.801,VALID,0,INVALID,123.545,VALID,208.328,VALID,21.455,VALID,250,VALID,0,
2017-02-23, 23:22:04,VALID,916.784,VALID,0,INVALID,122.501,VALID,207.469,VALID,21.5932,VALID,321,VALID,0,
2017-02-23, 23:23:04,VALID,916.789,VALID,0,INVALID,120.945,VALID,208.973,VALID,21.6713,VALID,229,VALID,0,
2017-02-23, 23:24:04,VALID,916.772,VALID,0,INVALID,123.172,VALID,212.089,VALID,21.7883,VALID,307,VALID,0,
2017-02-23, 23:25:04,VALID,916.783,VALID,0,INVALID,122.897,VALID,213.486,VALID,21.8842,VALID,306,VALID,0,
2017-02-23, 23:26:04,VALID,916.717,VALID,0,INVALID,119.711,VALID,215.42,VALID,22.0013,VALID,296,VALID,0,
2017-02-23, 23:27:04,VALID,916.728,VALID,0,INVALID,120.351,VALID,217.891,VALID,22.1184,VALID,296,VALID,0,
2017-02-23, 23:28:04,VALID,916.706,VALID,0,INVALID,123.652,VALID,218.858,VALID,22.2159,VALID,285,VALID,0,
2017-02-23, 23:29:04,VALID,916.74,VALID,0,INVALID,110.014,VALID,218.858,VALID,22.255,VALID,258,VALID,0,
2017-02-23, 23:30:04,VALID,916.765,VALID,0,INVALID,121.654,VALID,218.75,VALID,22.3542,VALID,261,VALID,0,
2017-02-23, 23:31:04,VALID,916.776,VALID,0,INVALID,119.756,VALID,218.535,VALID,22.4306,VALID,264,VALID,0,
2017-02-23, 23:32:04,VALID,916.796,VALID,0,INVALID,116.219,VALID,218.643,VALID,22.5281,VALID,182,VALID,0,
2017-02-23, 23:33:04,VALID,916.815,VALID,0,INVALID,111.226,VALID,213.271,VALID,22.5477,VALID,182,VALID,0,
2017-02-23, 23:34:04,VALID,916.827,VALID,0,INVALID,111.828,VALID,204.246,VALID,22.5477,VALID,182,VALID,0,
2017-02-23, 23:35:04,VALID,916.829,VALID,0,VALID,104,VALID,200.593,VALID,22.5281,VALID,190,VALID,0,
2017-02-23, 23:36:04,VALID,916.846,VALID,0,INVALID,112.788,VALID,191.46,VALID,22.4696,VALID,112,VALID,0,
2017-02-23, 23:37:04,VALID,916.876,VALID,0,INVALID,122.851,VALID,180.609,VALID,22.333,VALID,20,VALID,0.601172,
2017-02-23, 23:38:04,VALID,916.879,VALID,0,INVALID,126.015,VALID,166.856,VALID,22.2762,VALID,348,VALID,0,
2017-02-23, 23:39:04,VALID,916.9,VALID,0,INVALID,125.55,VALID,158.046,VALID,22.2371,VALID,348,VALID,0,
2017-02-23, 23:40:04,VALID,916.928,VALID,0,INVALID,125.977,VALID,156.864,VALID,22.2354,VALID,348,VALID,0,
2017-02-23, 23:41:04,VALID,916.933,VALID,0,INVALID,126.03,VALID,153.963,VALID,22.255,VALID,348,VALID,0,
2017-02-23, 23:42:04,VALID,916.952,VALID,0,INVALID,124.414,VALID,144.079,VALID,22.2159,VALID,336,VALID,0,
2017-02-23, 23:43:04,VALID,916.97,VALID,0,INVALID,126.007,VALID,134.839,VALID,22.1574,VALID,333,VALID,0,
2017-02-23, 23:44:04,VALID,917.001,VALID,0,INVALID,125.512,VALID,132.905,VALID,22.081,VALID,333,VALID,0,
2017-02-23, 23:45:04,VALID,917.043,VALID,0,INVALID,126.915,VALID,123.45,VALID,22.042,VALID,333,VALID,0,
2017-02-23, 23:46:04,VALID,917.046,VALID,0,INVALID,127.364,VALID,123.128,VALID,22.0403,VALID,339,VALID,0,
2017-02-23, 23:47:04,VALID,917.072,VALID,0,INVALID,127.799,VALID,133.442,VALID,22.0989,VALID,10,VALID,0,
2017-02-23, 23:48:04,VALID,917.069,VALID,0,INVALID,128.325,VALID,135.268,VALID,22.1769,VALID,21,VALID,0,
2017-02-23, 23:49:04,VALID,917.058,VALID,0,INVALID,129.225,VALID,139.351,VALID,22.2354,VALID,341,VALID,0.193359,
2017-02-23, 23:50:04,VALID,917.076,VALID,0,INVALID,129.225,VALID,140.533,VALID,22.255,VALID,15,VALID,1.26523,
2017-02-23, 23:51:04,VALID,917.111,VALID,0,INVALID,127.578,VALID,127.64,VALID,22.1574,VALID,16,VALID,0.895703,
2017-02-23, 23:52:04,VALID,917.135,VALID,0,INVALID,127.883,VALID,114.747,VALID,22.0403,VALID,30,VALID,1.43828,
